Weather History for Mt. Pocono, PA

Change the Weather History Date:

Monday, October 14, 2013

  Actual Average Record
Temperature  
Mean Temperature 55 °F 49 °F  
Max Temperature 66 °F 58 °F 78 °F (1975)
Min Temperature 44 °F 39 °F 21 °F (1906)
Degree Days  
Heating Degree Days 10 16  
Month to date heating degree days 90 202  
Since 1 July heating degree days 403 470  
Cooling Degree Days 0 0  
Month to date cooling degree days 8 0  
Year to date cooling degree days 467 313  
Growing Degree Days 4 (Base 50)    
Moisture  
Dew Point 45 °F    
Average Humidity 71    
Maximum Humidity 93    
Minimum Humidity 48    
Precipitation  
Precipitation 0.00 in 0.14 in 2.08 in (1955)
Month to date precipitation 0.97 2.04  
Year to date precipitation 38.35 38.38  
Sea Level Pressure  
Sea Level Pressure 30.33 in    
Wind  
Wind Speed 2 mph (SSE)    
Max Wind Speed 8 mph    
Max Gust Speed 10 mph    
Visibility 9 miles    
Events      
T = Trace of Precipitation, MM = Missing Value Source: NWS Daily Summary

Daily Weather History Graph

Daily Weather History Graph

Search for Another Location

Airport:

Trip Planner

Search our weather history database for the weather conditions in past years. The results will help you decide how hot, cold, wet, or windy it might be!

Date:

Astronomy

Oct. 14, 2013 Rise Set
Actual Time 7:12 AM EDT 6:21 PM EDT
Civil Twilight 6:44 AM EDT 6:49 PM EDT
Nautical Twilight 6:12 AM EDT 7:21 PM EDT
Astronomical Twilight 5:40 AM EDT 7:53 PM EDT
Moon 3:52 PM EDT (10/14) 2:23 AM EDT (10/14)
Length of Visible Light 12h 05m
Length of Day
11h 09m
Waxing Gibbous, 79% of the Moon is Illuminated
Oct 14
Waxing Gibbous
Oct 18
Full
Oct 26
Last Quarter
Nov 3
New
Nov 10
First Quarter

Hourly Weather History & Observations

Time (EDT) Temp. Windchill Dew Point Humidity Pressure Visibility Wind Dir Wind Speed Gust Speed Precip Events Conditions
12:07 AM 46.4 °F 44.3 °F 44.6 °F 93% 30.36 in 8.0 mi SE 4.6 mph - N/A   Mostly Cloudy
12:30 AM 46.4 °F 45.2 °F 44.6 °F 93% 30.36 in 7.0 mi ESE 3.5 mph - N/A   Overcast
12:53 AM 48.0 °F - 46.0 °F 93% 30.37 in 6.0 mi Calm Calm - N/A   Overcast
1:13 AM 48.2 °F - 46.4 °F 93% 30.36 in 7.0 mi Calm Calm - N/A   Overcast
1:53 AM 48.9 °F - 46.9 °F 93% 30.36 in 7.0 mi Calm Calm - N/A   Overcast
2:53 AM 48.9 °F - 46.9 °F 93% 30.35 in 7.0 mi Calm Calm - N/A   Overcast
3:43 AM 48.2 °F - 46.4 °F 93% 30.34 in 9.0 mi South 3.5 mph - N/A   Overcast
3:53 AM 48.0 °F - 46.0 °F 93% 30.35 in 7.0 mi Calm Calm - N/A   Overcast
4:30 AM 48.2 °F - 46.4 °F 93% 30.34 in 8.0 mi Calm Calm - N/A   Overcast
4:53 AM 48.0 °F - 46.0 °F 93% 30.35 in 9.0 mi South 3.5 mph - N/A   Overcast
5:53 AM 48.9 °F - 45.0 °F 86% 30.35 in 10.0 mi Calm Calm - N/A   Overcast
6:04 AM 48.2 °F - 44.6 °F 87% 30.34 in 10.0 mi Calm Calm - N/A   Overcast
6:29 AM 46.4 °F - 44.6 °F 93% 30.33 in 10.0 mi Calm Calm - N/A   Scattered Clouds
6:53 AM 45.0 °F - 43.0 °F 93% 30.36 in 7.0 mi Calm Calm - N/A   Clear
7:12 AM 44.6 °F - 42.8 °F 93% 30.34 in 5.0 mi Calm Calm - N/A   Scattered Clouds
7:21 AM 44.6 °F - 42.8 °F 93% 30.34 in 4.0 mi Calm Calm - N/A   Mostly Cloudy
7:53 AM 46.0 °F - 44.1 °F 93% 30.36 in 8.0 mi Calm Calm - N/A   Overcast
8:38 AM 48.2 °F - 44.6 °F 87% 30.35 in 10.0 mi SE 3.5 mph - N/A   Overcast
8:53 AM 48.0 °F - 45.0 °F 89% 30.37 in 10.0 mi Calm Calm - N/A   Overcast
9:53 AM 48.9 °F - 45.0 °F 86% 30.38 in 10.0 mi Calm Calm - N/A   Overcast
10:18 AM 50.0 °F - 44.6 °F 82% 30.36 in 10.0 mi Calm Calm - N/A   Overcast
10:53 AM 53.1 °F - 46.0 °F 77% 30.37 in 10.0 mi West 4.6 mph - N/A   Partly Cloudy
11:53 AM 57.0 °F - 44.1 °F 62% 30.35 in 10.0 mi WSW 4.6 mph - N/A   Clear
12:53 PM 61.0 °F - 42.1 °F 50% 30.31 in 10.0 mi Calm Calm - N/A   Clear
1:53 PM 64.9 °F - 44.1 °F 47% 30.28 in 10.0 mi ESE 8.1 mph - N/A   Clear
2:53 PM 64.9 °F - 46.9 °F 52% 30.27 in 10.0 mi ESE 4.6 mph - N/A   Clear
3:53 PM 64.9 °F - 46.9 °F 52% 30.25 in 10.0 mi SE 5.8 mph - N/A   Clear
4:53 PM 64.0 °F - 48.0 °F 56% 30.26 in 10.0 mi SE 5.8 mph - N/A   Clear
5:53 PM 61.0 °F - 46.9 °F 60% 30.27 in 10.0 mi SSE 3.5 mph - N/A   Clear
6:53 PM 55.9 °F - 46.9 °F 72% 30.30 in 10.0 mi Calm Calm - N/A   Partly Cloudy
7:53 PM 54.0 °F - 48.0 °F 80% 30.30 in 10.0 mi Calm Calm - N/A   Partly Cloudy
8:53 PM 50.0 °F - 46.9 °F 89% 30.30 in 10.0 mi Calm Calm - N/A   Scattered Clouds
9:53 PM 48.9 °F - 46.0 °F 90% 30.31 in 10.0 mi WNW 3.5 mph - N/A   Partly Cloudy
10:53 PM 48.9 °F - 45.0 °F 86% 30.30 in 10.0 mi Calm Calm - N/A   Clear
11:53 PM 46.9 °F - 44.1 °F 90% 30.29 in 10.0 mi Calm Calm - N/A   Clear